DW0108 Weather Reports


Display with metric or nautical units.
time (UTC)temp
F
wind
direction
speed
MPH
gust
MPH
rain 1hr
in
rain 24hr
in
rain mn
in
humidity
%
barometer
mb
20201028184816 42 314 7.0 17.0 0.00 0.00 8.44 83 1095.8
20201028182854 42 275 3.0 7.0 0.00 0.00 7.83 85 1095.1
20201028181820 42 314 6.0 13.0 0.00 0.00 7.51 86 1091.7
20201028175817 41 293 5.0 11.0 0.00 0.00 6.90 87 1091.7
20201028173820 41 306 5.0 16.0 0.00 0.00 6.27 87 1091.7
20201028172807 41 319 4.0 11.0 0.00 0.00 5.91 88 1091.7
20201028171806 41 275 4.0 12.0 0.00 0.00 5.59 88 1091.7
20201028135825 38 283 0.0 0.0 0.00 0.00 4.93 90 1091.7
20201028134856 38 310 0.0 0.0 0.00 0.00 4.65 90 1091.7
20201028133844 38 336 0.0 0.0 0.00 0.00 4.37 90 1091.7
20201028132847 38 94 0.0 0.0 0.00 0.00 4.10 90 1091.7
20201028131843 38 52 0.0 0.0 0.00 0.00 3.88 90 1091.7
20201028130846 38 23 0.0 3.0 0.00 0.00 3.62 90 1091.7
20201028125822 37 107 0.0 0.0 0.00 0.00 3.36 89 1091.7
20201028123812 37 174 0.0 5.0 0.00 0.00 2.84 89 1091.7
20201028120833 37 279 4.0 11.0 0.00 0.00 2.09 89 1083.3
20201028114807 38 283 0.0 4.0 0.00 0.00 1.73 89 1083.3
20201028112834 38 246 3.0 10.0 0.00 0.00 1.49 89 1083.3
20201028111839 38 262 3.0 10.0 0.00 0.00 1.39 89 1083.3
20201028104806 38 188 1.0 5.0 0.00 0.00 1.08 90 1083.3
20201028103843 38 309 1.0 5.0 0.00 0.00 9.92 90 1083.3
20201028101837 39 286 0.0 3.0 0.00 0.00 7.92 90 1095.1
20201028095825 39 305 1.0 7.0 0.00 0.00 5.92 90 1095.1
20201028094826 39 266 4.0 14.0 0.00 0.00 4.96 90 1095.1
20201028093830 39 268 1.0 5.0 0.00 0.00 4.30 90 1095.1
20201028092825 39 230 0.0 6.0 0.00 0.00 3.90 90 1095.1
20201028091816 39 201 3.0 11.0 0.00 0.00 3.50 90 1095.1
20201028090813 39 108 1.0 5.0 0.00 0.00 3.10 90 1095.1
20201028084820 39 144 1.0 6.0 0.00 0.00 2.29 90 1091.4
20201028083848 39 280 0.0 0.0 0.00 0.00 1.90 90 1091.4
20201028082825 39 180 1.0 5.0 0.00 0.00 1.66 90 1091.4
20201028081824 39 232 1.0 4.0 0.00 0.00 1.46 90 1091.4
20201028075834 40 237 0.0 3.0 0.00 0.00 1.06 90 1093.4
20201028074842 40 52 1.0 5.0 0.00 0.00 0.86 90 1038.2
20201028073810 40 57 1.0 6.0 0.00 0.00 0.66 90 1038.2
20201028071836 40 120 2.0 7.0 0.00 0.00 0.26 90 1038.2
20201028064839 40 62 0.0 4.0 0.00 0.00 0.00 90 1038.2
20201028062836 40 32 2.0 7.0 0.00 0.00 0.00 90 1038.2
20201028061851 40 33 0.0 0.0 0.00 0.00 0.00 90 1038.2
20201028055835 40 28 0.0 2.0 0.00 0.00 0.00 90 1038.2
20201028054819 40 42 0.0 4.0 0.00 0.00 0.00 90 1038.2
20201028053810 40 60 0.0 6.0 0.00 0.00 0.00 90 1038.2
20201028050812 40 42 0.0 3.0 0.00 0.00 0.00 90 1038.2
20201028045822 40 20 1.0 5.0 0.00 0.00 2.67 90 1038.2
20201028042834 40 33 0.0 5.0 0.00 0.00 2.58 90 1091.7
20201028041844 40 54 1.0 7.0 0.00 0.00 2.55 90 1091.7
20201028040836 40 25 0.0 0.0 0.00 0.00 2.52 90 1091.7
20201028035815 40 32 0.0 0.0 0.00 0.00 2.49 90 1091.7
20201028033833 39 25 1.0 6.0 0.00 0.00 2.43 90 1091.7
20201028032837 39 121 0.0 3.0 0.00 0.00 2.40 89 1091.7
20201028030847 39 21 4.0 10.0 0.00 0.00 2.34 89 1091.7
20201028025832 39 59 2.0 10.0 0.00 0.00 2.31 89 1091.7
20201028024844 39 84 2.0 11.0 0.00 0.00 2.28 89 1091.7
20201028023835 39 54 1.0 5.0 0.00 0.00 2.25 90 1091.7
20201028022822 39 116 1.0 5.0 0.00 0.00 2.22 90 1091.7
20201028015826 39 86 3.0 11.0 0.00 0.00 2.13 90 1091.7
20201028011836 39 115 1.0 8.0 0.00 0.00 2.01 89 1080.2
20201028010849 39 55 0.0 0.0 0.00 0.00 1.98 90 1080.2
20201028005857 39 57 1.0 5.0 0.00 0.00 1.95 89 1080.2
20201028004808 39 87 0.0 3.0 0.00 0.00 1.92 89 1080.2
20201028002829 39 52 0.0 0.0 0.00 0.00 1.86 89 1080.2
20201028001805 39 96 0.0 0.0 0.00 0.00 1.83 89 1080.2
20201027234838 39 52 0.0 0.0 0.00 0.00 1.74 89 1080.2
20201027232835 39 53 1.0 6.0 0.00 0.00 1.68 88 1080.2